sat.trackr.live / text

‹ back to catalog

STARLINK-6234

NORAD 57331 · 2023-099D

PAYLOAD ACTIVE UNKNOWN

§ Identity

Operator
Country
US
Launch date
2023-07-16
Launch site
AFETR
Launch vehicle
Mass (kg)
RCS (m²)

Purposes: comms

External: N2YO · Heavens-Above · Gunter

§ Orbital elements

Epoch: 2026-05-24T13:49:56.529408Z

Period
94.27 min
Inclination
43.0032°
Eccentricity
0.0001905
Mean motion
15.27575764 rev/d
Perigee alt
481.8 km
Apogee alt
484.4 km
Semi-major
6,861.2 km
B*
2.2814e-5
RAAN
183.7209°
Arg perigee
278.7190°
Mean anomaly
81.3446°
Rev number
15,768

§ Raw data

STARLINK-62341 57331U 23099D   26144.57634872  .00000365  00000+0  22814-4 0  99952 57331  43.0032 183.7209 0001905 278.7190  81.3446 15.27575764157684

JSON: /api/v1/satellites/57331 · /tle

For live sub-satellite position, see the globe view (requires WebGL).

§ Visibility from observer

Set your observer location to see the next 7 days of passes ≥ 10°. The values pass through the URL so the page stays shareable.

No JS? Fill the form by hand. The geolocation button needs JavaScript.